weather.gov     
National Weather Service

Terminal Aerodrome Forecast
NWS Homepage
This page is being discontinued on March 12, 2014.
The same data is available at this site. Please update your bookmarks.
Thank you, and we apologize for the inconvenience.
Please send an email to SR-SRH.Webmaster@noaa.gov with any concerns.


Current Version
Previous Version:    01  02  03  04  05  06  07  08  09  10  11  12  13  14  15  16  17  18  19  20  21  22  23  24  25  26  27  28  29  30  
   31  32  33  34  35  36  37  38  39  40  41  42  43  44  45  46  47  48  49  
[Printable]
557
FTUS43 KIND 220600 AAA
TAFLAF
TAF AMD
KLAF 220629Z 2206/2306 17005KT P6SM SCT040 OVC100
      TEMPO 2208/2212 1 1/2SM +TSRA BKN025 OVC040CB
     FM221200 21004KT P6SM BKN080
     FM222000 26009KT P6SM VCTS SCT035CB BKN080
     FM230200 26004KT P6SM VCTS SCT035CB BKN080
      AMD LTD TO CLD VIS AND WIND TIL 221300=


U.S. Dept. of Commerce
NOAA National Weather Service
1325 East West Highway
Silver Spring, MD 20910
E-mail: w-nws.webmaster@noaa.gov
Page last modified: May 16, 2007
NATIONAL WEATHER SERVICE: for Safety, for Work, for Fun - FOR LIFE